sat.trackr.live / text

‹ back to catalog

STARLINK-35585

NORAD 66170 · 2025-240AA

PAYLOAD ACTIVE UNKNOWN

§ Identity

Operator
Country
US
Launch date
2025-10-25
Launch site
AFWTR
Launch vehicle
Mass (kg)
RCS (m²)

Purposes: comms

External: N2YO · Heavens-Above · Gunter

§ Orbital elements

Epoch: 2026-05-25T03:40:25.269600Z

Period
93.85 min
Inclination
53.1589°
Eccentricity
0.0000923
Mean motion
15.34410699 rev/d
Perigee alt
462.0 km
Apogee alt
463.3 km
Semi-major
6,840.8 km
B*
6.8261e-4
RAAN
67.0494°
Arg perigee
89.1920°
Mean anomaly
270.9188°
Rev number
3,370

§ Raw data

STARLINK-355851 66170U 25240AA  26145.15307025  .00022765  00000+0  68261-3 0  99912 66170  53.1589  67.0494 0000923  89.1920 270.9188 15.34410699 33706

JSON: /api/v1/satellites/66170 · /tle

For live sub-satellite position, see the globe view (requires WebGL).

§ Visibility from observer

Set your observer location to see the next 7 days of passes ≥ 10°. The values pass through the URL so the page stays shareable.

No JS? Fill the form by hand. The geolocation button needs JavaScript.